| time (UTC) | temp F | wind direction | speed MPH | gust MPH | rain 1hr in | rain 24hr in | rain mn in | humidity % | barometer mb |
| 20260505062758 | 67 | 209 | 0.0 | 4.0 | 0.00 | 0.00 | 0.00 | 45 | 1009.9 |
| 20260505061820 | 67 | 237 | 0.0 | 0.0 | 0.00 | 0.00 | 0.00 | 45 | 1009.8 |
| 20260505060821 | 67 | 221 | 1.0 | 5.0 | 0.00 | 0.00 | 0.00 | 44 | 1009.7 |
| 20260505055846 | 67 | 155 | 1.0 | 5.0 | 0.00 | 0.00 | 0.00 | 44 | 1009.8 |
| 20260505054819 | 67 | 227 | 0.0 | 4.0 | 0.00 | 0.00 | 0.00 | 44 | 1009.9 |
| 20260505053826 | 67 | 196 | 0.0 | 1.0 | 0.00 | 0.00 | 0.00 | 44 | 1009.9 |
| 20260505052822 | 67 | 212 | 0.0 | 0.0 | 0.00 | 0.00 | 0.00 | 43 | 1010.2 |
| 20260505051840 | 67 | 190 | 0.0 | 0.0 | 0.00 | 0.00 | 0.00 | 42 | 1010.2 |
| 20260505050846 | 67 | 212 | 0.0 | 0.0 | 0.00 | 0.00 | 0.00 | 42 | 1010.3 |
| 20260505041612 | 67 | 211 | 1.0 | 3.0 | 0.00 | 0.00 | 0.00 | 41 | 1010.3 |
| 20260505040629 | 67 | 237 | 0.0 | 3.0 | 0.00 | 0.00 | 0.00 | 41 | 1010.2 |
| 20260505035622 | 68 | 231 | 0.0 | 1.0 | 0.00 | 0.00 | 0.00 | 41 | 1009.9 |
| 20260505034600 | 68 | 235 | 1.0 | 4.0 | 0.00 | 0.00 | 0.00 | 40 | 1009.7 |
| 20260505033625 | 68 | 236 | 1.0 | 5.0 | 0.00 | 0.00 | 0.00 | 39 | 1009.6 |
| 20260505032613 | 68 | 219 | 1.0 | 5.0 | 0.00 | 0.00 | 0.00 | 40 | 1009.6 |
| 20260505030436 | 68 | 224 | 2.0 | 5.0 | 0.00 | 0.00 | 0.00 | 39 | 1009.3 |
| 20260505025501 | 68 | 226 | 1.0 | 5.0 | 0.00 | 0.00 | 0.00 | 38 | 1009.3 |
| 20260505023354 | 69 | 218 | 2.0 | 6.0 | 0.00 | 0.00 | 0.00 | 36 | 1009.2 |
| 20260505022334 | 69 | 224 | 1.0 | 6.0 | 0.00 | 0.00 | 0.00 | 35 | 1009.1 |
| 20260505021312 | 69 | 210 | 3.0 | 7.0 | 0.00 | 0.00 | 0.00 | 33 | 1009.0 |
| 20260505020240 | 70 | 233 | 4.0 | 9.0 | 0.00 | 0.00 | 0.00 | 31 | 1009.0 |
| 20260505014116 | 70 | 238 | 3.0 | 8.0 | 0.00 | 0.00 | 0.00 | 31 | 1008.7 |
| 20260505013054 | 71 | 214 | 3.0 | 8.0 | 0.00 | 0.00 | 0.00 | 32 | 1008.8 |
| 20260505012052 | 71 | 221 | 2.0 | 6.0 | 0.00 | 0.00 | 0.00 | 30 | 1008.6 |
| 20260505011036 | 71 | 227 | 3.0 | 7.0 | 0.00 | 0.00 | 0.00 | 33 | 1008.6 |
| 20260505010058 | 71 | 231 | 3.0 | 9.0 | 0.00 | 0.00 | 0.00 | 32 | 1008.9 |
| 20260505005116 | 72 | 174 | 4.0 | 9.0 | 0.00 | 0.00 | 0.00 | 33 | 1008.8 |
| 20260505003029 | 72 | 202 | 4.0 | 9.0 | 0.00 | 0.00 | 0.00 | 33 | 1009.0 |
| 20260505002019 | 72 | 209 | 4.0 | 11.0 | 0.00 | 0.00 | 0.00 | 34 | 1009.1 |
| 20260505001029 | 73 | 250 | 4.0 | 12.0 | 0.00 | 0.00 | 0.00 | 32 | 1009.2 |
| 20260505000037 | 73 | 210 | 3.0 | 12.0 | 0.00 | 0.00 | 0.00 | 31 | 1009.2 |
| 20260504235007 | 73 | 214 | 3.0 | 11.0 | 0.00 | 0.00 | 0.00 | 32 | 1009.0 |
| 20260504234023 | 73 | 241 | 6.0 | 12.0 | 0.00 | 0.00 | 0.00 | 30 | 1008.9 |
| 20260504232952 | 74 | 213 | 5.0 | 12.0 | 0.00 | 0.00 | 0.00 | 32 | 1008.8 |
| 20260504230757 | 73 | 208 | 4.0 | 12.0 | 0.00 | 0.00 | 0.00 | 32 | 1008.8 |
| 20260504223548 | 73 | 272 | 4.0 | 12.0 | 0.00 | 0.00 | 0.00 | 32 | 1009.0 |
| 20260504221458 | 74 | 188 | 7.0 | 14.0 | 0.00 | 0.00 | 0.00 | 30 | 1009.3 |
| 20260504220458 | 74 | 224 | 5.0 | 14.0 | 0.00 | 0.00 | 0.00 | 33 | 1009.4 |
| 20260504215455 | 74 | 215 | 6.0 | 12.0 | 0.00 | 0.00 | 0.00 | 33 | 1009.6 |
| 20260504214446 | 74 | 233 | 5.0 | 12.0 | 0.00 | 0.00 | 0.00 | 33 | 1009.6 |
| 20260504213443 | 73 | 217 | 6.0 | 12.0 | 0.00 | 0.00 | 0.00 | 35 | 1009.9 |
| 20260504212449 | 74 | 230 | 6.0 | 13.0 | 0.00 | 0.00 | 0.00 | 33 | 1009.7 |
| 20260504211506 | 72 | 198 | 5.0 | 13.0 | 0.00 | 0.00 | 0.00 | 36 | 1010.0 |
| 20260504210431 | 73 | 221 | 5.0 | 12.0 | 0.00 | 0.00 | 0.00 | 36 | 1010.1 |
| 20260504205420 | 72 | 220 | 5.0 | 11.0 | 0.00 | 0.00 | 0.00 | 38 | 1010.0 |
| 20260504204433 | 73 | 236 | 5.0 | 12.0 | 0.00 | 0.00 | 0.00 | 37 | 1010.0 |
| 20260504203408 | 73 | 182 | 4.0 | 12.0 | 0.00 | 0.00 | 0.00 | 38 | 1010.3 |
| 20260504202402 | 72 | 233 | 6.0 | 11.0 | 0.00 | 0.00 | 0.00 | 40 | 1010.2 |
| 20260504201422 | 72 | 256 | 5.0 | 11.0 | 0.00 | 0.00 | 0.00 | 41 | 1010.2 |
| 20260504200419 | 72 | 263 | 4.0 | 11.0 | 0.00 | 0.00 | 0.00 | 40 | 1010.3 |
| 20260504194339 | 72 | 220 | 6.0 | 13.0 | 0.00 | 0.00 | 0.00 | 40 | 1010.1 |
| 20260504191058 | 72 | 200 | 3.0 | 11.0 | 0.00 | 0.00 | 0.00 | 42 | 1010.0 |
| 20260504184925 | 71 | 192 | 3.0 | 9.0 | 0.00 | 0.00 | 0.00 | 44 | 1010.1 |
| 20260504183910 | 70 | 59 | 4.0 | 10.0 | 0.00 | 0.00 | 0.00 | 44 | 1010.2 |
| 20260504182929 | 71 | 235 | 4.0 | 10.0 | 0.00 | 0.00 | 0.00 | 44 | 1010.3 |
| 20260504181950 | 70 | 136 | 5.0 | 10.0 | 0.00 | 0.00 | 0.00 | 45 | 1010.3 |
| 20260504180935 | 70 | 240 | 5.0 | 10.0 | 0.00 | 0.00 | 0.00 | 45 | 1010.5 |
| 20260504175923 | 70 | 217 | 5.0 | 11.0 | 0.00 | 0.00 | 0.00 | 45 | 1010.3 |
| 20260504174854 | 70 | 263 | 5.0 | 11.0 | 0.00 | 0.00 | 0.00 | 45 | 1010.1 |
| 20260504173840 | 70 | 221 | 2.0 | 9.0 | 0.00 | 0.00 | 0.00 | 44 | 1009.5 |
| 20260504172815 | 69 | 200 | 2.0 | 10.0 | 0.00 | 0.00 | 0.00 | 45 | 1009.4 |
| 20260504171833 | 69 | 207 | 3.0 | 10.0 | 0.00 | 0.00 | 0.00 | 45 | 1009.7 |
| 20260504170805 | 69 | 234 | 4.0 | 10.0 | 0.00 | 0.00 | 0.00 | 45 | 1010.2 |
| 20260504150615 | 70 | 188 | 2.0 | 5.0 | 0.00 | 0.00 | 0.00 | 38 | 1009.7 |
| 20260504140457 | 67 | 120 | 0.0 | 0.0 | 0.00 | 0.00 | 0.00 | 43 | 1009.0 |
| 20260504130139 | 64 | 120 | 0.0 | 0.0 | 0.00 | 0.00 | 0.00 | 45 | 1008.6 |
| 20260504081720 | 70 | 98 | 0.0 | 0.0 | 0.00 | 0.00 | 0.00 | 38 | 1007.6 |
| 20260504080710 | 70 | 174 | 0.0 | 0.0 | 0.00 | 0.00 | 0.00 | 37 | 1007.7 |